Time,TemperatureF,DewpointF,PressureIn,WindDirection,WindDirectionDegrees,WindSpeedMPH,WindSpeedGustMPH,Humidity,HourlyPrecipIn,Conditions,Clouds,dailyrainin,SoftwareType,DateUTC
2013-12-15 00:00:00,50.2,11.8,29.53,NW,305,0.0,2.0,21,0.00,,,0.00,WeatherTracker,2013-12-15 08:00:00,
2013-12-15 00:05:00,50.2,11.8,29.53,NW,305,0.0,0.0,21,0.00,,,0.00,WeatherTracker,2013-12-15 08:05:00,
2013-12-15 00:10:00,50.2,11.8,29.53,NW,305,0.0,0.0,21,0.00,,,0.00,WeatherTracker,2013-12-15 08:10:00,
2013-12-15 00:15:00,50.4,11.9,29.53,NW,305,0.0,0.0,21,0.00,,,0.00,WeatherTracker,2013-12-15 08:15:00,
2013-12-15 00:20:00,50.5,12.1,29.53,NW,305,0.0,0.0,21,0.00,,,0.00,WeatherTracker,2013-12-15 08:20:00,
2013-12-15 00:25:00,50.7,12.2,29.53,NW,305,0.0,0.0,21,0.00,,,0.00,WeatherTracker,2013-12-15 08:25:00,
2013-12-15 00:30:00,50.7,12.2,29.53,NW,305,0.0,0.0,21,0.00,,,0.00,WeatherTracker,2013-12-15 08:30:00,
2013-12-15 00:35:00,50.7,12.2,29.53,NW,305,0.0,0.0,21,0.00,,,0.00,WeatherTracker,2013-12-15 08:35:00,
2013-12-15 00:40:00,50.9,12.4,29.53,NW,305,0.0,0.0,21,0.00,,,0.00,WeatherTracker,2013-12-15 08:40:00,
2013-12-15 00:45:00,50.9,12.4,29.53,NW,305,0.0,0.0,21,0.00,,,0.00,WeatherTracker,2013-12-15 08:45:00,
2013-12-15 00:50:00,50.9,12.4,29.53,NW,305,0.0,0.0,21,0.00,,,0.00,WeatherTracker,2013-12-15 08:50:00,
2013-12-15 00:55:00,50.9,12.4,29.53,NW,305,0.0,0.0,21,0.00,,,0.00,WeatherTracker,2013-12-15 08:55:00,
2013-12-15 01:00:00,50.7,12.2,29.53,NW,305,0.0,0.0,21,0.00,,,0.00,WeatherTracker,2013-12-15 09:00:00,
2013-12-15 01:05:00,50.7,12.2,29.53,NW,305,0.0,0.0,21,0.00,,,0.00,WeatherTracker,2013-12-15 09:05:00,
2013-12-15 01:10:00,50.9,12.4,29.53,NW,305,0.0,0.0,21,0.00,,,0.00,WeatherTracker,2013-12-15 09:10:00,
2013-12-15 01:15:00,51.1,12.5,29.53,NW,305,0.0,0.0,21,0.00,,,0.00,WeatherTracker,2013-12-15 09:15:00,
2013-12-15 01:20:00,51.4,12.8,29.53,NW,305,0.0,0.0,21,0.00,,,0.00,WeatherTracker,2013-12-15 09:20:00,
2013-12-15 01:25:00,51.6,13.0,29.53,West,271,0.0,4.0,21,0.00,,,0.00,WeatherTracker,2013-12-15 09:25:00,
2013-12-15 01:30:00,52.0,13.3,29.53,WNW,300,3.0,4.0,21,0.00,,,0.00,WeatherTracker,2013-12-15 09:30:00,
2013-12-15 01:35:00,52.2,13.4,29.53,West,259,0.0,3.0,21,0.00,,,0.00,WeatherTracker,2013-12-15 09:35:00,
2013-12-15 01:40:00,52.3,10.1,29.53,WNW,288,2.0,3.0,18,0.00,,,0.00,WeatherTracker,2013-12-15 09:40:00,
2013-12-15 01:45:00,52.5,10.3,29.53,WNW,297,3.0,3.0,18,0.00,,,0.00,WeatherTracker,2013-12-15 09:45:00,
2013-12-15 01:50:00,52.9,10.6,29.53,WNW,300,2.0,3.0,18,0.00,,,0.00,WeatherTracker,2013-12-15 09:50:00,
2013-12-15 01:55:00,53.1,10.7,29.53,WNW,300,2.0,2.0,18,0.00,,,0.00,WeatherTracker,2013-12-15 09:55:00,
2013-12-15 02:00:00,53.1,10.7,29.53,WNW,300,3.0,3.0,18,0.00,,,0.00,WeatherTracker,2013-12-15 10:00:00,
2013-12-15 02:05:00,53.1,10.7,29.53,WNW,300,0.0,3.0,18,0.00,,,0.00,WeatherTracker,2013-12-15 10:05:00,
2013-12-15 02:10:00,52.7,10.4,29.53,WNW,300,0.0,2.0,18,0.00,,,0.00,WeatherTracker,2013-12-15 10:10:00,
2013-12-15 02:15:00,52.5,10.3,29.53,WNW,300,3.0,3.0,18,0.00,,,0.00,WeatherTracker,2013-12-15 10:15:00,
2013-12-15 02:20:00,52.3,10.1,29.53,WNW,300,2.0,4.0,18,0.00,,,0.00,WeatherTracker,2013-12-15 10:20:00,
2013-12-15 02:25:00,52.3,10.1,29.53,WSW,251,0.0,0.0,18,0.00,,,0.00,WeatherTracker,2013-12-15 10:25:00,
2013-12-15 02:30:00,52.0,9.8,29.53,WSW,250,0.0,0.0,18,0.00,,,0.00,WeatherTracker,2013-12-15 10:30:00,
2013-12-15 02:35:00,51.6,10.7,29.53,WSW,250,0.0,0.0,19,0.00,,,0.00,WeatherTracker,2013-12-15 10:35:00,
2013-12-15 02:40:00,51.3,10.4,29.53,WSW,250,0.0,0.0,19,0.00,,,0.00,WeatherTracker,2013-12-15 10:40:00,
2013-12-15 02:45:00,51.3,10.4,29.53,WSW,250,0.0,0.0,19,0.00,,,0.00,WeatherTracker,2013-12-15 10:45:00,
2013-12-15 02:50:00,51.1,10.3,29.53,WSW,250,0.0,0.0,19,0.00,,,0.00,WeatherTracker,2013-12-15 10:50:00,
2013-12-15 02:55:00,50.5,9.8,29.53,WSW,250,0.0,0.0,19,0.00,,,0.00,WeatherTracker,2013-12-15 10:55:00,
2013-12-15 03:00:00,50.2,9.5,29.53,WSW,250,0.0,0.0,19,0.00,,,0.00,WeatherTracker,2013-12-15 11:00:00,
2013-12-15 03:06:00,49.8,9.2,29.53,WSW,250,3.0,3.0,19,0.00,,,0.00,WeatherTracker,2013-12-15 11:06:00,
2013-12-15 03:11:00,49.6,9.1,29.53,WSW,248,0.0,0.0,19,0.00,,,0.00,WeatherTracker,2013-12-15 11:11:00,
2013-12-15 03:16:00,50.0,9.4,29.53,WSW,248,0.0,0.0,19,0.00,,,0.00,WeatherTracker,2013-12-15 11:16:00,
2013-12-15 03:21:00,50.2,9.5,29.53,WNW,295,2.0,2.0,19,0.00,,,0.00,WeatherTracker,2013-12-15 11:21:00,
2013-12-15 03:26:00,50.5,9.8,29.53,WNW,295,0.0,0.0,19,0.00,,,0.00,WeatherTracker,2013-12-15 11:26:00,
2013-12-15 03:32:00,50.7,10.0,29.53,WNW,295,2.0,4.0,19,0.00,,,0.00,WeatherTracker,2013-12-15 11:32:00,
2013-12-15 03:37:00,50.9,10.1,29.53,WNW,285,0.0,2.0,19,0.00,,,0.00,WeatherTracker,2013-12-15 11:37:00,
2013-12-15 03:42:00,50.9,10.1,29.53,WNW,292,0.0,3.0,19,0.00,,,0.00,WeatherTracker,2013-12-15 11:42:00,
2013-12-15 03:47:00,50.9,10.1,29.53,WNW,300,3.0,3.0,19,0.00,,,0.00,WeatherTracker,2013-12-15 11:47:00,
2013-12-15 03:52:00,51.1,10.3,29.53,WNW,299,4.0,4.0,19,0.00,,,0.00,WeatherTracker,2013-12-15 11:52:00,
2013-12-15 03:57:00,51.4,10.6,29.53,WNW,298,2.0,3.0,19,0.00,,,0.00,WeatherTracker,2013-12-15 11:57:00,
2013-12-15 04:02:00,51.6,10.7,29.53,WNW,301,2.0,0.0,19,0.00,,,0.00,WeatherTracker,2013-12-15 12:02:00,
2013-12-15 04:07:00,51.6,10.7,29.53,WNW,301,0.0,2.0,19,0.00,,,0.00,WeatherTracker,2013-12-15 12:07:00,
2013-12-15 04:12:00,51.4,10.6,29.53,WNW,301,2.0,3.0,19,0.00,,,0.00,WeatherTracker,2013-12-15 12:12:00,
2013-12-15 04:17:00,51.4,10.6,29.53,WNW,301,0.0,3.0,19,0.00,,,0.00,WeatherTracker,2013-12-15 12:17:00,
2013-12-15 04:22:00,51.3,10.4,29.53,WNW,301,2.0,3.0,19,0.00,,,0.00,WeatherTracker,2013-12-15 12:22:00,
2013-12-15 04:27:00,51.3,10.4,29.53,West,272,2.0,0.0,19,0.00,,,0.00,WeatherTracker,2013-12-15 12:27:00,
2013-12-15 04:32:00,51.3,10.4,29.53,WNW,298,0.0,0.0,19,0.00,,,0.00,WeatherTracker,2013-12-15 12:32:00,
2013-12-15 04:37:00,51.3,10.4,29.53,WNW,298,2.0,2.0,19,0.00,,,0.00,WeatherTracker,2013-12-15 12:37:00,
2013-12-15 04:42:00,51.3,10.4,29.53,WNW,300,0.0,3.0,19,0.00,,,0.00,WeatherTracker,2013-12-15 12:42:00,
2013-12-15 04:47:00,51.3,10.4,29.53,WNW,300,2.0,3.0,19,0.00,,,0.00,WeatherTracker,2013-12-15 12:47:00,
2013-12-15 04:52:00,51.3,10.4,29.53,WNW,300,0.0,0.0,19,0.00,,,0.00,WeatherTracker,2013-12-15 12:52:00,
2013-12-15 04:57:00,51.3,10.4,29.53,WNW,300,0.0,0.0,19,0.00,,,0.00,WeatherTracker,2013-12-15 12:57:00,
2013-12-15 05:02:00,51.3,10.4,29.53,WNW,299,2.0,0.0,19,0.00,,,0.00,WeatherTracker,2013-12-15 13:02:00,
2013-12-15 05:07:00,51.4,10.6,29.53,West,277,2.0,4.0,19,0.00,,,0.00,WeatherTracker,2013-12-15 13:07:00,
2013-12-15 05:12:00,51.4,10.6,29.53,WNW,291,0.0,0.0,19,0.00,,,0.00,WeatherTracker,2013-12-15 13:12:00,
2013-12-15 05:17:00,51.4,10.6,29.53,WNW,291,2.0,0.0,19,0.00,,,0.00,WeatherTracker,2013-12-15 13:17:00,
2013-12-15 05:22:00,51.4,10.6,29.53,NW,325,0.0,0.0,19,0.00,,,0.00,WeatherTracker,2013-12-15 13:22:00,
2013-12-15 05:27:00,51.4,10.6,29.53,NW,325,0.0,3.0,19,0.00,,,0.00,WeatherTracker,2013-12-15 13:27:00,
2013-12-15 05:32:00,51.4,10.6,29.53,West,266,4.0,4.0,19,0.00,,,0.00,WeatherTracker,2013-12-15 13:32:00,
2013-12-15 05:37:00,51.6,10.7,29.53,West,264,3.0,3.0,19,0.00,,,0.00,WeatherTracker,2013-12-15 13:37:00,
2013-12-15 05:42:00,51.8,9.7,29.53,SW,235,3.0,6.0,18,0.00,,,0.00,WeatherTracker,2013-12-15 13:42:00,
2013-12-15 05:47:00,51.8,9.7,29.53,West,264,4.0,4.0,18,0.00,,,0.00,WeatherTracker,2013-12-15 13:47:00,
2013-12-15 05:52:00,51.8,9.7,29.53,West,265,3.0,4.0,18,0.00,,,0.00,WeatherTracker,2013-12-15 13:52:00,
2013-12-15 05:57:00,52.0,9.8,29.53,West,270,3.0,4.0,18,0.00,,,0.00,WeatherTracker,2013-12-15 13:57:00,
2013-12-15 06:02:00,52.0,9.8,29.53,West,269,0.0,2.0,18,0.00,,,0.00,WeatherTracker,2013-12-15 14:02:00,
2013-12-15 06:07:00,52.0,9.8,29.53,West,269,3.0,4.0,18,0.00,,,0.00,WeatherTracker,2013-12-15 14:07:00,
2013-12-15 06:12:00,52.2,10.0,29.53,West,269,2.0,0.0,18,0.00,,,0.00,WeatherTracker,2013-12-15 14:12:00,
2013-12-15 06:17:00,52.2,10.0,29.53,West,267,4.0,4.0,18,0.00,,,0.00,WeatherTracker,2013-12-15 14:17:00,
2013-12-15 06:22:00,52.5,10.3,29.53,West,268,3.0,4.0,18,0.00,,,0.00,WeatherTracker,2013-12-15 14:22:00,
2013-12-15 06:27:00,52.7,10.4,29.53,WNW,297,3.0,3.0,18,0.00,,,0.00,WeatherTracker,2013-12-15 14:27:00,
2013-12-15 06:32:00,52.9,10.6,29.53,WNW,297,3.0,3.0,18,0.00,,,0.00,WeatherTracker,2013-12-15 14:32:00,
2013-12-15 06:37:00,53.1,10.7,29.53,WNW,302,4.0,4.0,18,0.00,,,0.00,WeatherTracker,2013-12-15 14:37:00,
2013-12-15 06:42:00,53.1,10.7,29.53,WNW,288,4.0,4.0,18,0.00,,,0.00,WeatherTracker,2013-12-15 14:42:00,
2013-12-15 06:47:00,53.2,10.9,29.53,WNW,301,4.0,4.0,18,0.00,,,0.00,WeatherTracker,2013-12-15 14:47:00,
2013-12-15 06:52:00,53.2,10.9,29.53,WNW,292,4.0,4.0,18,0.00,,,0.00,WeatherTracker,2013-12-15 14:52:00,
2013-12-15 06:57:00,53.2,10.9,29.53,WNW,297,3.0,4.0,18,0.00,,,0.00,WeatherTracker,2013-12-15 14:57:00,
2013-12-15 07:02:00,53.1,10.7,29.53,WNW,290,0.0,3.0,18,0.00,,,0.00,WeatherTracker,2013-12-15 15:02:00,
2013-12-15 07:07:00,53.1,10.7,29.53,West,265,0.0,3.0,18,0.00,,,0.00,WeatherTracker,2013-12-15 15:07:00,
2013-12-15 07:12:00,52.9,10.6,29.53,West,281,3.0,3.0,18,0.00,,,0.00,WeatherTracker,2013-12-15 15:12:00,
2013-12-15 07:17:00,52.9,10.6,29.53,West,261,0.0,3.0,18,0.00,,,0.00,WeatherTracker,2013-12-15 15:17:00,
2013-12-15 07:22:00,52.9,10.6,29.53,NW,315,0.0,0.0,18,0.00,,,0.00,WeatherTracker,2013-12-15 15:22:00,
2013-12-15 07:27:00,52.5,10.3,29.53,NW,315,0.0,0.0,18,0.00,,,0.00,WeatherTracker,2013-12-15 15:27:00,
2013-12-15 07:32:00,52.2,10.0,29.53,West,265,0.0,2.0,18,0.00,,,0.00,WeatherTracker,2013-12-15 15:32:00,
2013-12-15 07:37:00,52.0,9.8,29.53,West,265,0.0,0.0,18,0.00,,,0.00,WeatherTracker,2013-12-15 15:37:00,
2013-12-15 07:42:00,52.0,9.8,29.53,West,265,0.0,0.0,18,0.00,,,0.00,WeatherTracker,2013-12-15 15:42:00,
2013-12-15 07:47:00,52.0,9.8,29.53,West,265,0.0,3.0,18,0.00,,,0.00,WeatherTracker,2013-12-15 15:47:00,
2013-12-15 07:52:00,52.2,10.0,29.53,West,265,2.0,2.0,18,0.00,,,0.00,WeatherTracker,2013-12-15 15:52:00,
2013-12-15 07:57:00,52.5,10.3,29.53,WSW,249,2.0,0.0,18,0.00,,,0.00,WeatherTracker,2013-12-15 15:57:00,
2013-12-15 08:02:00,52.7,10.4,29.53,WNW,299,3.0,4.0,18,0.00,,,0.00,WeatherTracker,2013-12-15 16:02:00,
2013-12-15 08:07:00,53.1,10.7,29.53,West,271,0.0,0.0,18,0.00,,,0.00,WeatherTracker,2013-12-15 16:07:00,
2013-12-15 08:12:00,53.1,10.7,29.53,West,271,0.0,0.0,18,0.00,,,0.00,WeatherTracker,2013-12-15 16:12:00,
2013-12-15 08:17:00,52.9,10.6,29.53,West,271,0.0,0.0,18,0.00,,,0.00,WeatherTracker,2013-12-15 16:17:00,
2013-12-15 08:22:00,52.5,10.3,29.53,WSW,245,0.0,4.0,18,0.00,,,0.00,WeatherTracker,2013-12-15 16:22:00,
2013-12-15 08:27:00,52.3,10.1,29.53,WSW,245,0.0,0.0,18,0.00,,,0.00,WeatherTracker,2013-12-15 16:27:00,
2013-12-15 08:32:00,52.3,10.1,29.53,WSW,241,2.0,4.0,18,0.00,,,0.00,WeatherTracker,2013-12-15 16:32:00,
2013-12-15 08:37:00,52.2,10.0,29.53,West,259,0.0,0.0,18,0.00,,,0.00,WeatherTracker,2013-12-15 16:37:00,
2013-12-15 08:42:00,52.5,10.3,29.53,West,260,0.0,0.0,18,0.00,,,0.00,WeatherTracker,2013-12-15 16:42:00,
2013-12-15 08:47:00,53.1,10.7,29.53,West,259,0.0,0.0,18,0.00,,,0.00,WeatherTracker,2013-12-15 16:47:00,
2013-12-15 08:52:00,53.4,11.0,29.53,WNW,298,3.0,4.0,18,0.00,,,0.00,WeatherTracker,2013-12-15 16:52:00,
2013-12-15 08:57:00,53.8,11.3,29.53,WSW,257,0.0,4.0,18,0.00,,,0.00,WeatherTracker,2013-12-15 16:57:00,
2013-12-15 09:02:00,54.1,11.6,29.53,West,281,3.0,3.0,18,0.00,,,0.00,WeatherTracker,2013-12-15 17:02:00,
2013-12-15 09:07:00,54.3,11.7,29.53,West,260,2.0,3.0,18,0.00,,,0.00,WeatherTracker,2013-12-15 17:07:00,
2013-12-15 09:16:00,54.5,11.9,29.53,WNW,297,4.0,4.0,18,0.00,,,0.00,WeatherTracker,2013-12-15 17:16:00,
2013-12-15 09:21:00,54.9,12.2,29.53,NW,313,3.0,3.0,18,0.00,,,0.00,WeatherTracker,2013-12-15 17:21:00,
2013-12-15 09:26:00,55.0,12.3,29.53,NW,320,2.0,3.0,18,0.00,,,0.00,WeatherTracker,2013-12-15 17:26:00,
2013-12-15 09:31:00,55.2,12.5,29.53,NW,323,4.0,4.0,18,0.00,,,0.00,WeatherTracker,2013-12-15 17:31:00,
2013-12-15 09:36:00,55.4,11.3,29.53,NW,324,0.0,0.0,17,0.00,,,0.00,WeatherTracker,2013-12-15 17:36:00,
2013-12-15 09:41:00,55.4,11.3,29.53,NW,323,0.0,0.0,17,0.00,,,0.00,WeatherTracker,2013-12-15 17:41:00,
2013-12-15 09:46:00,56.1,11.9,29.53,NW,310,2.0,3.0,17,0.00,,,0.00,WeatherTracker,2013-12-15 17:46:00,
2013-12-15 09:51:00,57.7,13.2,29.53,NW,311,3.0,3.0,17,0.00,,,0.00,WeatherTracker,2013-12-15 17:51:00,
2013-12-15 09:56:00,58.8,14.1,29.53,WNW,300,2.0,0.0,17,0.00,,,0.00,WeatherTracker,2013-12-15 17:56:00,
2013-12-15 10:01:00,59.2,14.4,29.53,WNW,300,4.0,4.0,17,0.00,,,0.00,WeatherTracker,2013-12-15 18:01:00,
2013-12-15 10:06:00,59.9,15.0,29.53,WNW,300,2.0,3.0,17,0.00,,,0.00,WeatherTracker,2013-12-15 18:06:00,
2013-12-15 10:11:00,59.9,15.0,29.53,NW,311,2.0,3.0,17,0.00,,,0.00,WeatherTracker,2013-12-15 18:11:00,
2013-12-15 10:16:00,59.5,14.7,29.53,NNW,338,0.0,0.0,17,0.00,,,0.00,WeatherTracker,2013-12-15 18:16:00,
2013-12-15 10:21:00,59.7,14.8,29.53,NNW,338,0.0,3.0,17,0.00,,,0.00,WeatherTracker,2013-12-15 18:21:00,
2013-12-15 10:26:00,60.4,15.4,29.53,WNW,302,0.0,0.0,17,0.00,,,0.00,WeatherTracker,2013-12-15 18:26:00,
2013-12-15 10:31:00,60.1,15.1,29.53,WNW,302,0.0,0.0,17,0.00,,,0.00,WeatherTracker,2013-12-15 18:31:00,
2013-12-15 10:36:00,59.2,14.4,29.53,WNW,302,0.0,0.0,17,0.00,,,0.00,WeatherTracker,2013-12-15 18:36:00,
2013-12-15 10:41:00,58.5,13.8,29.53,WNW,302,0.0,0.0,17,0.00,,,0.00,WeatherTracker,2013-12-15 18:41:00,
2013-12-15 10:46:00,58.1,13.5,29.53,WNW,302,0.0,0.0,17,0.00,,,0.00,WeatherTracker,2013-12-15 18:46:00,
2013-12-15 10:47:00,58.6,14.0,29.53,NW,306,0.0,0.0,17,0.00,,,0.00,WeatherTracker,2013-12-15 18:47:00,
2013-12-15 10:48:00,58.5,13.8,29.53,NW,306,0.0,0.0,17,0.00,,,0.00,WeatherTracker,2013-12-15 18:48:00,
2013-12-15 10:49:00,58.5,13.8,29.53,NW,306,0.0,0.0,17,0.00,,,0.00,WeatherTracker,2013-12-15 18:49:00,
2013-12-15 10:50:00,58.5,13.8,29.53,NW,306,0.0,0.0,17,0.00,,,0.00,WeatherTracker,2013-12-15 18:50:00,
2013-12-15 10:51:00,57.7,13.2,29.53,WNW,302,0.0,0.0,17,0.00,,,0.00,WeatherTracker,2013-12-15 18:51:00,
2013-12-15 10:52:00,58.5,13.8,29.53,West,259,0.0,2.0,17,0.00,,,0.00,WeatherTracker,2013-12-15 18:52:00,
2013-12-15 10:53:00,58.5,13.8,29.53,West,259,0.0,0.0,17,0.00,,,0.00,WeatherTracker,2013-12-15 18:53:00,
2013-12-15 10:55:00,58.3,13.7,29.53,West,259,0.0,0.0,17,0.00,,,0.00,WeatherTracker,2013-12-15 18:55:00,
2013-12-15 10:56:00,57.9,13.4,29.53,WNW,302,0.0,0.0,17,0.00,,,0.00,WeatherTracker,2013-12-15 18:56:00,
2013-12-15 10:57:00,58.3,13.7,29.53,West,259,0.0,0.0,17,0.00,,,0.00,WeatherTracker,2013-12-15 18:57:00,
2013-12-15 10:58:00,58.3,13.7,29.53,West,259,0.0,0.0,17,0.00,,,0.00,WeatherTracker,2013-12-15 18:58:00,
2013-12-15 10:59:00,58.1,13.5,29.53,West,259,0.0,3.0,17,0.00,,,0.00,WeatherTracker,2013-12-15 18:59:00,
2013-12-15 11:01:00,57.7,13.2,29.53,WNW,302,0.0,0.0,17,0.00,,,0.00,WeatherTracker,2013-12-15 19:01:00,
2013-12-15 11:06:00,57.6,13.1,29.53,WNW,302,0.0,0.0,17,0.00,,,0.00,WeatherTracker,2013-12-15 19:06:00,
2013-12-15 11:11:00,57.6,13.1,29.53,WNW,302,0.0,0.0,17,0.00,,,0.00,WeatherTracker,2013-12-15 19:11:00,
2013-12-15 11:16:00,57.6,13.1,29.53,WNW,302,0.0,3.0,17,0.00,,,0.00,WeatherTracker,2013-12-15 19:16:00,
2013-12-15 11:21:00,57.6,13.1,29.53,WNW,302,0.0,0.0,17,0.00,,,0.00,WeatherTracker,2013-12-15 19:21:00,
2013-12-15 11:26:00,57.4,12.9,29.53,NE,42,0.0,4.0,17,0.00,,,0.00,WeatherTracker,2013-12-15 19:26:00,
2013-12-15 11:31:00,58.1,13.5,29.53,NNE,30,0.0,0.0,17,0.00,,,0.00,WeatherTracker,2013-12-15 19:31:00,
2013-12-15 11:36:00,58.8,14.1,29.53,WNW,296,0.0,3.0,17,0.00,,,0.00,WeatherTracker,2013-12-15 19:36:00,
2013-12-15 11:41:00,58.8,14.1,29.53,NW,306,0.0,0.0,17,0.00,,,0.00,WeatherTracker,2013-12-15 19:41:00,
2013-12-15 11:46:00,58.6,14.0,29.53,NW,306,0.0,0.0,17,0.00,,,0.00,WeatherTracker,2013-12-15 19:46:00,
2013-12-15 11:51:00,58.5,13.8,29.53,West,270,0.0,0.0,17,0.00,,,0.00,WeatherTracker,2013-12-15 19:51:00,
2013-12-15 11:56:00,58.3,13.7,29.53,West,259,0.0,0.0,17,0.00,,,0.00,WeatherTracker,2013-12-15 19:56:00,
2013-12-15 12:01:00,58.1,13.5,29.53,West,259,0.0,0.0,17,0.00,,,0.00,WeatherTracker,2013-12-15 20:01:00,
2013-12-15 12:06:00,58.1,13.5,29.53,WSW,258,0.0,2.0,17,0.00,,,0.00,WeatherTracker,2013-12-15 20:06:00,
2013-12-15 12:11:00,57.9,13.4,29.53,NW,307,0.0,0.0,17,0.00,,,0.00,WeatherTracker,2013-12-15 20:11:00,
2013-12-15 12:16:00,57.9,13.4,29.53,NW,305,0.0,0.0,17,0.00,,,0.00,WeatherTracker,2013-12-15 20:16:00,
2013-12-15 12:21:00,57.9,13.4,29.53,NW,305,0.0,0.0,17,0.00,,,0.00,WeatherTracker,2013-12-15 20:21:00,
2013-12-15 12:26:00,57.9,13.4,29.53,NW,305,0.0,0.0,17,0.00,,,0.00,WeatherTracker,2013-12-15 20:26:00,
2013-12-15 12:32:00,57.7,13.2,29.53,NW,305,0.0,0.0,17,0.00,,,0.00,WeatherTracker,2013-12-15 20:32:00,
2013-12-15 12:37:00,57.7,13.2,29.53,NW,305,0.0,0.0,17,0.00,,,0.00,WeatherTracker,2013-12-15 20:37:00,
2013-12-15 12:42:00,57.6,13.1,29.53,NW,305,0.0,0.0,17,0.00,,,0.00,WeatherTracker,2013-12-15 20:42:00,
2013-12-15 12:47:00,57.6,13.1,29.53,NW,305,0.0,0.0,17,0.00,,,0.00,WeatherTracker,2013-12-15 20:47:00,
2013-12-15 12:52:00,57.6,13.1,29.53,NW,305,0.0,0.0,17,0.00,,,0.00,WeatherTracker,2013-12-15 20:52:00,
2013-12-15 12:57:00,57.6,13.1,29.53,NW,305,2.0,2.0,17,0.00,,,0.00,WeatherTracker,2013-12-15 20:57:00,
2013-12-15 13:02:00,57.4,12.9,29.53,NW,305,0.0,0.0,17,0.00,,,0.00,WeatherTracker,2013-12-15 21:02:00,
2013-12-15 13:07:00,57.2,15.3,29.53,NW,305,0.0,0.0,19,0.00,,,0.00,WeatherTracker,2013-12-15 21:07:00,
2013-12-15 13:12:00,57.2,15.3,29.53,NW,305,0.0,0.0,19,0.00,,,0.00,WeatherTracker,2013-12-15 21:12:00,
2013-12-15 13:17:00,57.2,15.3,29.53,NW,305,0.0,0.0,19,0.00,,,0.00,WeatherTracker,2013-12-15 21:17:00,
2013-12-15 13:22:00,57.4,12.9,29.53,NW,305,0.0,0.0,17,0.00,,,0.00,WeatherTracker,2013-12-15 21:22:00,
2013-12-15 13:27:00,57.9,13.4,29.53,NW,305,0.0,0.0,17,0.00,,,0.00,WeatherTracker,2013-12-15 21:27:00,
2013-12-15 13:32:00,58.3,16.2,29.53,NW,305,0.0,0.0,19,0.00,,,0.00,WeatherTracker,2013-12-15 21:32:00,
2013-12-15 13:37:00,58.5,13.8,29.53,NW,305,0.0,0.0,17,0.00,,,0.00,WeatherTracker,2013-12-15 21:37:00,
2013-12-15 13:42:00,58.8,16.7,29.53,NW,305,0.0,0.0,19,0.00,,,0.00,WeatherTracker,2013-12-15 21:42:00,
2013-12-15 13:47:00,58.5,16.4,29.53,NW,305,0.0,0.0,19,0.00,,,0.00,WeatherTracker,2013-12-15 21:47:00,
2013-12-15 13:52:00,58.1,16.1,29.53,NW,305,0.0,0.0,19,0.00,,,0.00,WeatherTracker,2013-12-15 21:52:00,
2013-12-15 13:57:00,57.9,15.9,29.53,NW,305,0.0,2.0,19,0.00,,,0.00,WeatherTracker,2013-12-15 21:57:00,
2013-12-15 14:02:00,57.6,15.6,29.53,NW,305,0.0,0.0,19,0.00,,,0.00,WeatherTracker,2013-12-15 22:02:00,
2013-12-15 14:07:00,57.4,15.5,29.53,NW,305,0.0,0.0,19,0.00,,,0.00,WeatherTracker,2013-12-15 22:07:00,
2013-12-15 14:12:00,57.4,15.5,29.53,NW,305,0.0,0.0,19,0.00,,,0.00,WeatherTracker,2013-12-15 22:12:00,
2013-12-15 14:17:00,57.4,15.5,29.53,NW,305,0.0,0.0,19,0.00,,,0.00,WeatherTracker,2013-12-15 22:17:00,
2013-12-15 14:22:00,57.2,15.3,29.53,NW,305,3.0,3.0,19,0.00,,,0.00,WeatherTracker,2013-12-15 22:22:00,
2013-12-15 14:27:00,57.0,16.4,29.53,NW,305,2.0,2.0,20,0.00,,,0.00,WeatherTracker,2013-12-15 22:27:00,
2013-12-15 14:32:00,57.0,16.4,29.53,NW,305,3.0,3.0,20,0.00,,,0.00,WeatherTracker,2013-12-15 22:32:00,
2013-12-15 14:37:00,56.8,16.2,29.53,NW,305,3.0,3.0,20,0.00,,,0.00,WeatherTracker,2013-12-15 22:37:00,
2013-12-15 14:42:00,56.8,16.2,29.53,NW,305,0.0,3.0,20,0.00,,,0.00,WeatherTracker,2013-12-15 22:42:00,
2013-12-15 14:47:00,56.8,16.2,29.53,NW,305,2.0,2.0,20,0.00,,,0.00,WeatherTracker,2013-12-15 22:47:00,
2013-12-15 14:52:00,57.0,16.4,29.53,NW,305,0.0,2.0,20,0.00,,,0.00,WeatherTracker,2013-12-15 22:52:00,
2013-12-15 14:57:00,56.8,16.2,29.53,NW,305,3.0,0.0,20,0.00,,,0.00,WeatherTracker,2013-12-15 22:57:00,
2013-12-15 15:02:00,56.8,16.2,29.53,NW,305,2.0,3.0,20,0.00,,,0.00,WeatherTracker,2013-12-15 23:02:00,
2013-12-15 15:07:00,56.8,16.2,29.53,NW,305,2.0,2.0,20,0.00,,,0.00,WeatherTracker,2013-12-15 23:07:00,
2013-12-15 15:12:00,57.0,16.4,29.53,NW,305,3.0,3.0,20,0.00,,,0.00,WeatherTracker,2013-12-15 23:12:00,
2013-12-15 15:17:00,57.0,16.4,29.53,NW,305,0.0,2.0,20,0.00,,,0.00,WeatherTracker,2013-12-15 23:17:00,
2013-12-15 15:22:00,57.0,16.4,29.53,NW,305,0.0,2.0,20,0.00,,,0.00,WeatherTracker,2013-12-15 23:22:00,
2013-12-15 15:27:00,56.8,16.2,29.53,NW,305,0.0,0.0,20,0.00,,,0.00,WeatherTracker,2013-12-15 23:27:00,
2013-12-15 15:32:00,56.7,16.1,29.53,NW,305,0.0,2.0,20,0.00,,,0.00,WeatherTracker,2013-12-15 23:32:00,
2013-12-15 15:37:00,56.7,16.1,29.53,NW,305,0.0,3.0,20,0.00,,,0.00,WeatherTracker,2013-12-15 23:37:00,
2013-12-15 15:42:00,56.7,16.1,29.53,NW,305,2.0,2.0,20,0.00,,,0.00,WeatherTracker,2013-12-15 23:42:00,
2013-12-15 15:47:00,56.5,15.9,29.53,NW,305,0.0,0.0,20,0.00,,,0.00,WeatherTracker,2013-12-15 23:47:00,
2013-12-15 15:52:00,56.5,15.9,29.53,NW,305,0.0,0.0,20,0.00,,,0.00,WeatherTracker,2013-12-15 23:52:00,
2013-12-15 15:57:00,56.3,15.8,29.53,NW,305,0.0,0.0,20,0.00,,,0.00,WeatherTracker,2013-12-15 23:57:00,
2013-12-15 16:02:00,56.3,15.8,29.53,NW,305,0.0,0.0,20,0.00,,,0.00,WeatherTracker,2013-12-16 00:02:00,
2013-12-15 16:07:00,56.3,15.8,29.53,NW,305,0.0,0.0,20,0.00,,,0.00,WeatherTracker,2013-12-16 00:07:00,
2013-12-15 16:12:00,56.3,15.8,29.53,NW,305,0.0,0.0,20,0.00,,,0.00,WeatherTracker,2013-12-16 00:12:00,
2013-12-15 16:17:00,56.3,15.8,29.53,NW,305,0.0,0.0,20,0.00,,,0.00,WeatherTracker,2013-12-16 00:17:00,
2013-12-15 16:22:00,56.1,15.6,29.53,NW,305,0.0,0.0,20,0.00,,,0.00,WeatherTracker,2013-12-16 00:22:00,
2013-12-15 16:27:00,56.1,15.6,29.53,NW,305,0.0,0.0,20,0.00,,,0.00,WeatherTracker,2013-12-16 00:27:00,
2013-12-15 16:32:00,56.1,15.6,29.53,NW,305,0.0,0.0,20,0.00,,,0.00,WeatherTracker,2013-12-16 00:32:00,
2013-12-15 16:37:00,55.9,15.5,29.53,NW,305,0.0,3.0,20,0.00,,,0.00,WeatherTracker,2013-12-16 00:37:00,
2013-12-15 16:42:00,55.9,15.5,29.53,NW,305,2.0,3.0,20,0.00,,,0.00,WeatherTracker,2013-12-16 00:42:00,
2013-12-15 16:47:00,55.9,15.5,29.53,NW,305,0.0,0.0,20,0.00,,,0.00,WeatherTracker,2013-12-16 00:47:00,
2013-12-15 16:52:00,55.6,15.2,29.53,NW,305,0.0,0.0,20,0.00,,,0.00,WeatherTracker,2013-12-16 00:52:00,
2013-12-15 16:57:00,55.6,15.2,29.53,NW,305,0.0,0.0,20,0.00,,,0.00,WeatherTracker,2013-12-16 00:57:00,
2013-12-15 17:02:00,55.6,15.2,29.53,NW,305,0.0,0.0,20,0.00,,,0.00,WeatherTracker,2013-12-16 01:02:00,
2013-12-15 17:07:00,55.4,15.0,29.53,NW,305,0.0,0.0,20,0.00,,,0.00,WeatherTracker,2013-12-16 01:07:00,
2013-12-15 17:12:00,55.2,14.9,29.53,NW,305,0.0,0.0,20,0.00,,,0.00,WeatherTracker,2013-12-16 01:12:00,
2013-12-15 17:17:00,55.2,14.9,29.53,NW,305,0.0,0.0,20,0.00,,,0.00,WeatherTracker,2013-12-16 01:17:00,
2013-12-15 17:22:00,55.2,14.9,29.53,NW,305,0.0,0.0,20,0.00,,,0.00,WeatherTracker,2013-12-16 01:22:00,
2013-12-15 17:27:00,55.2,14.9,29.53,NW,305,0.0,0.0,20,0.00,,,0.00,WeatherTracker,2013-12-16 01:27:00,
2013-12-15 17:32:00,55.0,14.7,29.53,NW,305,0.0,0.0,20,0.00,,,0.00,WeatherTracker,2013-12-16 01:32:00,
2013-12-15 17:37:00,54.7,14.4,29.53,NW,305,0.0,0.0,20,0.00,,,0.00,WeatherTracker,2013-12-16 01:37:00,
2013-12-15 17:42:00,54.7,14.4,29.53,NW,305,0.0,0.0,20,0.00,,,0.00,WeatherTracker,2013-12-16 01:42:00,
2013-12-15 17:47:00,54.5,14.3,29.53,NW,305,0.0,0.0,20,0.00,,,0.00,WeatherTracker,2013-12-16 01:47:00,
2013-12-15 17:52:00,54.3,14.1,29.53,NW,305,0.0,0.0,20,0.00,,,0.00,WeatherTracker,2013-12-16 01:52:00,
2013-12-15 17:57:00,54.1,14.0,29.53,NW,305,0.0,0.0,20,0.00,,,0.00,WeatherTracker,2013-12-16 01:57:00,
2013-12-15 18:02:00,54.1,14.0,29.53,NW,305,0.0,0.0,20,0.00,,,0.00,WeatherTracker,2013-12-16 02:02:00,
2013-12-15 18:07:00,54.3,14.1,29.53,NW,305,0.0,0.0,20,0.00,,,0.00,WeatherTracker,2013-12-16 02:07:00,
2013-12-15 18:12:00,54.3,14.1,29.53,NW,305,0.0,0.0,20,0.00,,,0.00,WeatherTracker,2013-12-16 02:12:00,
2013-12-15 18:17:00,54.3,14.1,29.53,NW,305,0.0,0.0,20,0.00,,,0.00,WeatherTracker,2013-12-16 02:17:00,
2013-12-15 18:22:00,54.5,14.3,29.53,NW,305,0.0,0.0,20,0.00,,,0.00,WeatherTracker,2013-12-16 02:22:00,
2013-12-15 18:27:00,54.3,14.1,29.53,NW,305,0.0,0.0,20,0.00,,,0.00,WeatherTracker,2013-12-16 02:27:00,
2013-12-15 18:32:00,54.3,14.1,29.53,NW,305,0.0,0.0,20,0.00,,,0.00,WeatherTracker,2013-12-16 02:32:00,
2013-12-15 18:37:00,54.3,14.1,29.53,NW,305,0.0,0.0,20,0.00,,,0.00,WeatherTracker,2013-12-16 02:37:00,
2013-12-15 18:39:00,55.2,14.9,29.53,NW,305,0.0,0.0,20,0.00,,,0.00,WeatherTracker,2013-12-16 02:39:00,
2013-12-15 18:40:00,55.2,14.9,29.53,NW,305,0.0,0.0,20,0.00,,,0.00,WeatherTracker,2013-12-16 02:40:00,
2013-12-15 18:41:00,55.2,14.9,29.53,NW,305,0.0,0.0,20,0.00,,,0.00,WeatherTracker,2013-12-16 02:41:00,
2013-12-15 18:42:00,54.5,14.3,29.53,NW,305,0.0,0.0,20,0.00,,,0.00,WeatherTracker,2013-12-16 02:42:00,
2013-12-15 18:43:00,55.2,14.9,29.53,NW,305,0.0,0.0,20,0.00,,,0.00,WeatherTracker,2013-12-16 02:43:00,
2013-12-15 18:44:00,55.2,14.9,29.53,NW,305,0.0,0.0,20,0.00,,,0.00,WeatherTracker,2013-12-16 02:44:00,
2013-12-15 18:45:00,55.2,14.9,29.53,NW,305,0.0,0.0,20,0.00,,,0.00,WeatherTracker,2013-12-16 02:45:00,
2013-12-15 18:46:00,55.2,14.9,29.53,NW,305,0.0,0.0,20,0.00,,,0.00,WeatherTracker,2013-12-16 02:46:00,
2013-12-15 18:47:00,54.5,14.3,29.53,NW,305,0.0,0.0,20,0.00,,,0.00,WeatherTracker,2013-12-16 02:47:00,
2013-12-15 18:52:00,54.7,14.4,29.53,NW,305,0.0,0.0,20,0.00,,,0.00,WeatherTracker,2013-12-16 02:52:00,
2013-12-15 18:57:00,54.9,14.6,29.53,NW,305,0.0,0.0,20,0.00,,,0.00,WeatherTracker,2013-12-16 02:57:00,
2013-12-15 19:02:00,54.9,14.6,29.53,NW,305,0.0,0.0,20,0.00,,,0.00,WeatherTracker,2013-12-16 03:02:00,
2013-12-15 19:07:00,54.7,14.4,29.53,NW,305,0.0,0.0,20,0.00,,,0.00,WeatherTracker,2013-12-16 03:07:00,
2013-12-15 19:12:00,54.7,14.4,29.53,NW,305,0.0,0.0,20,0.00,,,0.00,WeatherTracker,2013-12-16 03:12:00,
2013-12-15 19:17:00,55.0,14.7,29.53,NW,305,0.0,0.0,20,0.00,,,0.00,WeatherTracker,2013-12-16 03:17:00,
2013-12-15 19:22:00,55.2,14.9,29.53,NW,305,0.0,0.0,20,0.00,,,0.00,WeatherTracker,2013-12-16 03:22:00,
2013-12-15 19:27:00,55.2,14.9,29.53,NW,305,0.0,0.0,20,0.00,,,0.00,WeatherTracker,2013-12-16 03:27:00,
2013-12-15 19:32:00,55.2,14.9,29.53,NW,305,0.0,0.0,20,0.00,,,0.00,WeatherTracker,2013-12-16 03:32:00,
2013-12-15 19:37:00,55.2,14.9,29.53,NW,305,0.0,0.0,20,0.00,,,0.00,WeatherTracker,2013-12-16 03:37:00,
2013-12-15 19:42:00,55.2,14.9,29.53,NW,305,0.0,0.0,20,0.00,,,0.00,WeatherTracker,2013-12-16 03:42:00,
2013-12-15 19:47:00,55.2,14.9,29.53,NW,305,0.0,0.0,20,0.00,,,0.00,WeatherTracker,2013-12-16 03:47:00,
2013-12-15 19:52:00,55.6,15.2,29.53,NW,305,0.0,0.0,20,0.00,,,0.00,WeatherTracker,2013-12-16 03:52:00,
2013-12-15 19:57:00,55.4,15.0,29.53,NW,305,2.0,2.0,20,0.00,,,0.00,WeatherTracker,2013-12-16 03:57:00,
2013-12-15 20:01:00,55.2,14.9,29.53,NW,305,2.0,2.0,20,0.00,,,0.00,WeatherTracker,2013-12-16 04:01:00,
2013-12-15 20:02:00,55.4,15.0,29.53,NW,305,2.0,2.0,20,0.00,,,0.00,WeatherTracker,2013-12-16 04:02:00,
2013-12-15 20:03:00,55.0,14.7,29.53,NW,305,3.0,3.0,20,0.00,,,0.00,WeatherTracker,2013-12-16 04:03:00,
2013-12-15 20:04:00,55.0,14.7,29.53,NW,305,3.0,3.0,20,0.00,,,0.00,WeatherTracker,2013-12-16 04:04:00,
2013-12-15 20:05:00,55.0,14.7,29.53,NW,305,3.0,3.0,20,0.00,,,0.00,WeatherTracker,2013-12-16 04:05:00,
2013-12-15 20:06:00,55.0,14.7,29.53,NW,305,3.0,3.0,20,0.00,,,0.00,WeatherTracker,2013-12-16 04:06:00,
2013-12-15 20:07:00,55.4,15.0,29.53,NW,305,2.0,0.0,20,0.00,,,0.00,WeatherTracker,2013-12-16 04:07:00,
2013-12-15 20:08:00,55.0,14.7,29.53,NW,305,0.0,0.0,20,0.00,,,0.00,WeatherTracker,2013-12-16 04:08:00,
2013-12-15 20:09:00,55.0,14.7,29.53,NW,305,0.0,0.0,20,0.00,,,0.00,WeatherTracker,2013-12-16 04:09:00,
2013-12-15 20:10:00,55.0,14.7,29.53,NW,305,0.0,0.0,20,0.00,,,0.00,WeatherTracker,2013-12-16 04:10:00,
2013-12-15 20:11:00,55.0,14.7,29.53,NW,305,0.0,0.0,20,0.00,,,0.00,WeatherTracker,2013-12-16 04:11:00,
2013-12-15 20:12:00,55.4,15.0,29.53,NW,305,0.0,2.0,20,0.00,,,0.00,WeatherTracker,2013-12-16 04:12:00,
2013-12-15 20:13:00,55.0,14.7,29.53,NW,305,0.0,0.0,20,0.00,,,0.00,WeatherTracker,2013-12-16 04:13:00,
2013-12-15 20:14:00,55.2,14.9,29.53,NW,305,0.0,0.0,20,0.00,,,0.00,WeatherTracker,2013-12-16 04:14:00,
2013-12-15 20:15:00,55.2,14.9,29.53,NW,305,0.0,0.0,20,0.00,,,0.00,WeatherTracker,2013-12-16 04:15:00,
2013-12-15 20:16:00,55.2,14.9,29.53,NW,305,0.0,0.0,20,0.00,,,0.00,WeatherTracker,2013-12-16 04:16:00,
2013-12-15 20:17:00,55.4,15.0,29.53,NW,305,0.0,0.0,20,0.00,,,0.00,WeatherTracker,2013-12-16 04:17:00,
2013-12-15 20:18:00,55.2,14.9,29.53,NW,305,0.0,0.0,20,0.00,,,0.00,WeatherTracker,2013-12-16 04:18:00,
2013-12-15 20:19:00,55.2,14.9,29.53,NW,305,0.0,0.0,20,0.00,,,0.00,WeatherTracker,2013-12-16 04:19:00,
2013-12-15 20:22:00,55.2,14.9,29.53,NW,305,0.0,0.0,20,0.00,,,0.00,WeatherTracker,2013-12-16 04:22:00,
2013-12-15 20:27:00,55.2,14.9,29.53,NW,305,0.0,0.0,20,0.00,,,0.00,WeatherTracker,2013-12-16 04:27:00,
2013-12-15 20:32:00,54.9,14.6,29.53,NW,305,0.0,0.0,20,0.00,,,0.00,WeatherTracker,2013-12-16 04:32:00,
2013-12-15 20:37:00,54.7,14.4,29.53,NW,305,0.0,0.0,20,0.00,,,0.00,WeatherTracker,2013-12-16 04:37:00,
2013-12-15 20:42:00,54.7,14.4,29.53,NW,305,0.0,0.0,20,0.00,,,0.00,WeatherTracker,2013-12-16 04:42:00,
2013-12-15 20:47:00,54.7,14.4,29.53,NW,305,0.0,0.0,20,0.00,,,0.00,WeatherTracker,2013-12-16 04:47:00,
2013-12-15 20:52:00,54.9,14.6,29.53,NW,305,0.0,0.0,20,0.00,,,0.00,WeatherTracker,2013-12-16 04:52:00,
2013-12-15 20:57:00,55.0,14.7,29.53,NW,305,0.0,0.0,20,0.00,,,0.00,WeatherTracker,2013-12-16 04:57:00,
2013-12-15 21:07:00,55.0,14.7,29.53,NW,305,0.0,0.0,20,0.00,,,0.00,WeatherTracker,2013-12-16 05:07:00,
2013-12-15 21:13:00,55.0,14.7,29.53,NW,305,0.0,0.0,20,0.00,,,0.00,WeatherTracker,2013-12-16 05:13:00,
2013-12-15 21:18:00,55.2,14.9,29.53,NW,305,0.0,0.0,20,0.00,,,0.00,WeatherTracker,2013-12-16 05:18:00,
2013-12-15 21:23:00,55.4,15.0,29.53,NW,305,0.0,0.0,20,0.00,,,0.00,WeatherTracker,2013-12-16 05:23:00,
2013-12-15 21:28:00,55.6,15.2,29.53,NW,305,0.0,0.0,20,0.00,,,0.00,WeatherTracker,2013-12-16 05:28:00,
2013-12-15 21:33:00,55.9,11.8,29.53,NW,305,0.0,0.0,17,0.00,,,0.00,WeatherTracker,2013-12-16 05:33:00,
2013-12-15 21:38:00,56.3,12.1,29.53,NW,305,0.0,0.0,17,0.00,,,0.00,WeatherTracker,2013-12-16 05:38:00,
2013-12-15 21:43:00,56.7,16.1,29.53,NW,305,0.0,0.0,20,0.00,,,0.00,WeatherTracker,2013-12-16 05:43:00,
2013-12-15 21:48:00,56.7,12.4,29.53,NW,305,0.0,0.0,17,0.00,,,0.00,WeatherTracker,2013-12-16 05:48:00,
2013-12-15 21:53:00,56.7,12.4,29.53,NW,305,0.0,0.0,17,0.00,,,0.00,WeatherTracker,2013-12-16 05:53:00,
2013-12-15 21:58:00,56.8,12.5,29.53,NW,305,0.0,0.0,17,0.00,,,0.00,WeatherTracker,2013-12-16 05:58:00,
2013-12-15 22:03:00,56.7,12.4,29.53,NW,305,0.0,2.0,17,0.00,,,0.00,WeatherTracker,2013-12-16 06:03:00,
2013-12-15 22:08:00,56.7,12.4,29.53,NW,305,0.0,0.0,17,0.00,,,0.00,WeatherTracker,2013-12-16 06:08:00,
2013-12-15 22:13:00,56.5,12.2,29.53,NW,305,0.0,0.0,17,0.00,,,0.00,WeatherTracker,2013-12-16 06:13:00,
2013-12-15 22:18:00,56.5,12.2,29.53,NW,305,0.0,0.0,17,0.00,,,0.00,WeatherTracker,2013-12-16 06:18:00,
2013-12-15 22:23:00,56.7,12.4,29.53,NW,305,0.0,0.0,17,0.00,,,0.00,WeatherTracker,2013-12-16 06:23:00,
2013-12-15 22:28:00,56.7,12.4,29.53,NW,305,0.0,0.0,17,0.00,,,0.00,WeatherTracker,2013-12-16 06:28:00,
2013-12-15 22:33:00,56.7,12.4,29.53,NW,305,0.0,0.0,17,0.00,,,0.00,WeatherTracker,2013-12-16 06:33:00,
2013-12-15 22:38:00,56.8,12.5,29.53,NW,305,0.0,0.0,17,0.00,,,0.00,WeatherTracker,2013-12-16 06:38:00,
2013-12-15 22:43:00,56.8,12.5,29.53,NW,305,0.0,0.0,17,0.00,,,0.00,WeatherTracker,2013-12-16 06:43:00,
2013-12-15 22:48:00,57.0,12.7,29.53,NW,305,0.0,0.0,17,0.00,,,0.00,WeatherTracker,2013-12-16 06:48:00,
2013-12-15 22:53:00,56.8,12.5,29.53,NW,305,0.0,3.0,17,0.00,,,0.00,WeatherTracker,2013-12-16 06:53:00,
2013-12-15 22:58:00,57.0,12.7,29.53,NW,305,0.0,0.0,17,0.00,,,0.00,WeatherTracker,2013-12-16 06:58:00,
2013-12-15 23:03:00,57.4,12.9,29.53,NW,305,0.0,3.0,17,0.00,,,0.00,WeatherTracker,2013-12-16 07:03:00,
2013-12-15 23:08:00,57.6,13.1,29.53,NW,305,2.0,3.0,17,0.00,,,0.00,WeatherTracker,2013-12-16 07:08:00,
2013-12-15 23:13:00,57.7,13.2,29.53,NW,305,3.0,3.0,17,0.00,,,0.00,WeatherTracker,2013-12-16 07:13:00,
2013-12-15 23:18:00,57.6,13.1,29.53,NW,305,0.0,0.0,17,0.00,,,0.00,WeatherTracker,2013-12-16 07:18:00,
2013-12-15 23:23:00,57.6,13.1,29.53,NW,305,0.0,0.0,17,0.00,,,0.00,WeatherTracker,2013-12-16 07:23:00,
2013-12-15 23:28:00,57.6,13.1,29.53,NW,305,0.0,0.0,17,0.00,,,0.00,WeatherTracker,2013-12-16 07:28:00,
2013-12-15 23:33:00,57.6,13.1,29.53,NW,305,0.0,0.0,17,0.00,,,0.00,WeatherTracker,2013-12-16 07:33:00,
2013-12-15 23:38:00,57.7,13.2,29.53,NW,305,0.0,0.0,17,0.00,,,0.00,WeatherTracker,2013-12-16 07:38:00,
2013-12-15 23:43:00,57.9,13.4,29.53,NW,305,0.0,0.0,17,0.00,,,0.00,WeatherTracker,2013-12-16 07:43:00,
2013-12-15 23:48:00,58.3,13.7,29.53,NW,305,3.0,3.0,17,0.00,,,0.00,WeatherTracker,2013-12-16 07:48:00,
2013-12-15 23:53:00,58.5,13.8,29.53,NW,305,3.0,3.0,17,0.00,,,0.00,WeatherTracker,2013-12-16 07:53:00,
2013-12-15 23:58:00,58.8,14.1,29.53,NW,305,3.0,3.0,17,0.00,,,0.00,WeatherTracker,2013-12-16 07:58:00,